This is the latest recevied weather packets stored in our database for station/object DG9BJA-13. If no packets are shown the sender has not sent any weather packets the latest 1 day(s).
| Time | Temp. | Humidity | Pressure | Rain* | Wind** | Luminosity | Snow |
|---|---|---|---|---|---|---|---|
| 1778045776 | 6.11° C | 94% | 1006.9 hPa | 1.52 mm | - | 33 W/m² | - |
| 1778045176 | 6.11° C | 94% | 1006.8 hPa | 1.52 mm | - | 30 W/m² | - |
| 1778044576 | 6.11° C | 94% | 1006.8 hPa | 1.78 mm | - | 25 W/m² | - |
| 1778043976 | 6.67° C | 94% | 1006.9 hPa | 1.78 mm | - | 19 W/m² | - |
| 1778043376 | 6.67° C | 94% | 1006.9 hPa | 1.78 mm | - | 18 W/m² | - |
| 1778042776 | 6.67° C | 94% | 1006.9 hPa | 1.78 mm | - | 12 W/m² | - |
| 1778042176 | 6.67° C | 94% | 1006.8 hPa | 1.52 mm | - | 11 W/m² | - |
| 1778041576 | 6.67° C | 94% | 1006.8 hPa | 1.52 mm | - | 7 W/m² | - |
| 1778040976 | 7.22° C | 94% | 1006.8 hPa | 1.78 mm | - | 5 W/m² | - |
| 1778040376 | 7.22° C | 94% | 1006.8 hPa | 1.78 mm | - | 0 W/m² | - |
| 1778039176 | 7.22° C | 94% | 1006.8 hPa | 2.29 mm | - | 0 W/m² | - |
| 1778038576 | 7.78° C | 94% | 1006.8 hPa | 2.54 mm | - | 0 W/m² | - |
| 1778037376 | 7.78° C | 94% | 1006.9 hPa | 2.79 mm | - | 0 W/m² | - |
| 1778036176 | 7.78° C | 93% | 1007.2 hPa | 3.05 mm | - | 0 W/m² | - |
| 1778035576 | 7.78° C | 93% | 1007.2 hPa | 3.05 mm | - | 0 W/m² | - |
| 1778034375 | 8.33° C | 93% | 1007.3 hPa | 3.05 mm | - | 0 W/m² | - |
| 1778033775 | 8.33° C | 93% | 1007.3 hPa | 2.79 mm | - | 0 W/m² | - |
| 1778032575 | 8.89° C | 93% | 1007.4 hPa | 2.29 mm | - | 0 W/m² | - |
| 1778031375 | 8.89° C | 92% | 1007.5 hPa | 1.52 mm | - | 0 W/m² | - |
| 1778030177 | 9.44° C | 91% | 1007.6 hPa | 1.27 mm | - | 0 W/m² | - |
| 1778029577 | 9.44° C | 91% | 1007.6 hPa | 1.02 mm | - | 0 W/m² | - |
| 1778028977 | 9.44° C | 90% | 1007.8 hPa | 0.76 mm | - | 0 W/m² | - |
| 1778028377 | 9.44° C | 90% | 1007.8 hPa | 0.51 mm | - | 0 W/m² | - |
| 1778027777 | 10° C | 89% | 1007.9 hPa | 0.51 mm | - | 0 W/m² | - |
| 1778027177 | 10° C | 88% | 1007.9 hPa | 0.25 mm | - | 0 W/m² | - |
* Rain latest hour (hover to see other rain measurements)
** Current wind speed in m/s (hover to see current wind gust speed)